User: anonymous
Location: Lawrence Hall of Science
(37.8785°N, 122.2415°W)
Time: 13:56:54
(UTC-07:00)
Language:

ARGOS - Orbit

View from above orbital plane
View from above orbital plane
View from above satellite
View from above satellite

Ground track
Ground track

The orbit data is extracted from the following two-line orbital elements,

1 25634U 99008A   14108.80280825  .00000095  00000-0  66520-4 0  1385
2 25634 098.7646 176.9682 0009132 294.3849 172.7978 14.19145188784580
Epoch (UTC): 18 April 2014 19:16:02
Eccentricity: 0.0009132
inclination: 98.7646°
perigee height: 821 km
apogee height: 835 km
right ascension of ascending node: 176.9682°
argument of perigee: 294.3849°
revolutions per day: 14.19145188
mean anomaly at epoch: 172.7978°
orbit number at epoch: 78458

The dashed part of the orbit path shows where the satellite is in the earth's shadow,  

DLR